This is the latest recevied weather packets stored in our database for station/object ON3FV. If no packets are shown the sender has not sent any weather packets the latest 10 day(s).
| Time | Temp. | Humidity | Pressure | Rain* | Wind** | Luminosity | Snow |
|---|---|---|---|---|---|---|---|
| 1778076438 | 14.44° C | 80% | 1009.1 hPa | - | - | - | - |
| 1778075534 | 14.44° C | 79% | 1009.2 hPa | - | - | - | - |
| 1778074912 | 14.44° C | 79% | 1009.2 hPa | - | - | - | - |
| 1778070706 | 13.89° C | 81% | 1008.9 hPa | - | - | - | - |
| 1778070397 | 13.89° C | 82% | 1008.9 hPa | - | - | - | - |
| 1778067388 | 12.78° C | 85% | 1009 hPa | - | - | - | - |
| 1778066786 | 12.78° C | 85% | 1009 hPa | - | - | - | - |
| 1778065281 | 12.22° C | 86% | 1009.1 hPa | - | - | - | - |
| 1778062572 | 11.11° C | 86% | 1009.1 hPa | - | - | - | - |
| 1778060766 | 11.11° C | 86% | 1009 hPa | - | - | - | - |
| 1778058960 | 11.11° C | 86% | 1008.7 hPa | - | - | - | - |
| 1778058660 | 11.11° C | 86% | 1008.7 hPa | - | - | - | - |
| 1778056552 | 11.11° C | 84% | 1008.4 hPa | - | - | - | - |
| 1778055649 | 11.67° C | 84% | 1008.3 hPa | - | - | - | - |
| 1778053843 | 11.67° C | 84% | 1008.2 hPa | - | - | - | - |
| 1778052960 | 11.67° C | 85% | 1008.1 hPa | - | - | - | - |
| 1778051134 | 11.11° C | 86% | 1008 hPa | - | - | - | - |
| 1778049630 | 10.56° C | 86% | 1007.9 hPa | - | - | - | - |
| 1778049328 | 10° C | 86% | 1007.9 hPa | - | - | - | - |
| 1778040900 | 8.89° C | 86% | 1007.8 hPa | - | - | - | - |
| 1778040017 | 8.89° C | 86% | 1007.8 hPa | - | - | - | - |
| 1778038492 | 8.89° C | 86% | 1007.9 hPa | - | - | - | - |
| 1778037589 | 8.89° C | 85% | 1007.8 hPa | - | - | - | - |
| 1778037308 | 8.89° C | 85% | 1007.9 hPa | - | - | - | - |
| 1778034880 | 9.44° C | 85% | 1008 hPa | - | - | - | - |
* Rain since midnight (hover to see other rain measurements)
** Current wind speed in m/s (hover to see current wind gust speed)